CW1936 Weather Reports


Display with metric or nautical units.
time (UTC)temp
F
wind
direction
speed
MPH
gust
MPH
rain 1hr
in
rain 24hr
in
rain mn
in
humidity
%
barometer
mb
20260906103022 93 107 1.0 8.0 0.00 0.01 0.01 28 1014.4
20260906101520 93 32 1.0 6.0 0.00 0.01 0.01 27 1014.5
20260906100017 92 287 1.0 8.0 0.01 0.01 0.01 28 1014.7
20260906094525 92 40 1.0 8.0 0.01 0.01 0.01 27 1014.7
20260906093015 92 28 2.0 7.0 0.01 0.01 0.01 28 1014.8
20260906091524 91 345 0.0 11.0 0.01 0.01 0.01 30 1014.8
20260906090014 91 347 1.0 13.0 0.00 0.00 0.00 31 1015.0
20260906084521 91 75 2.0 11.0 0.00 0.00 0.00 31 1014.9
20260906083021 91 30 2.0 9.0 0.00 0.00 0.00 30 1014.9
20260906081529 92 86 1.0 6.0 0.00 0.00 0.00 30 1014.8
20260906080009 91 199 1.0 8.0 0.00 0.00 0.00 29 1014.8
20260906074509 90 65 4.0 13.0 0.00 0.00 0.00 30 1014.8
20260906073007 92 70 1.0 7.0 0.00 0.00 0.00 30 1014.6
20260906071504 91 60 2.0 8.0 0.00 0.00 0.00 29 1014.5
20260906070002 92 127 0.0 9.0 0.00 0.00 0.00 29 1014.4
20260906064558 91 335 1.0 4.0 0.00 0.00 0.00 27 1014.4
20260906063055 90 185 0.0 6.0 0.00 0.00 0.00 30 1014.4
20260906061551 86 13 0.0 6.0 0.00 0.00 0.00 42 1014.3
20260906060050 83 124 1.0 6.0 0.00 0.00 0.00 52 1014.3
20260906054551 81 123 3.0 5.0 0.00 0.00 0.00 54 1014.1
20260906053045 82 118 3.0 4.0 0.00 0.00 0.00 53 1014.0
20260906051551 83 113 0.0 2.0 0.00 0.00 0.00 51 1014.0
20260906050108 86 94 0.0 0.0 0.00 0.00 0.00 48 1013.9
20260906044538 82 94 0.0 0.0 0.00 0.00 0.00 53 1013.7
20260906043038 76 95 0.0 0.0 0.00 0.00 0.00 54 1013.7
20260906041535 73 94 0.0 0.0 0.00 0.00 0.00 57 1013.5
20260906040041 71 94 0.0 0.0 0.00 0.00 0.00 57 1013.4
20260906034541 71 94 0.0 0.0 0.00 0.00 0.00 59 1013.3
20260906033034 71 94 0.0 0.0 0.00 0.00 0.00 62 1013.3
20260906031540 71 94 0.0 0.0 0.00 0.00 0.00 64 1013.3
20260906030033 70 94 0.0 0.0 0.00 0.00 0.00 65 1013.3
20260906024531 71 94 0.0 0.0 0.00 0.00 0.00 66 1013.3
20260906023034 71 95 0.0 0.0 0.00 0.00 0.00 67 1013.3
20260906021529 71 95 0.0 0.0 0.00 0.00 0.00 67 1013.3
20260906020030 71 95 0.0 0.0 0.00 0.00 0.00 68 1013.3
20260906014532 72 94 0.0 0.0 0.00 0.00 0.00 69 1013.3
20260906013021 72 95 0.0 0.0 0.00 0.00 0.00 69 1013.4
20260906011519 73 94 0.0 0.0 0.00 0.00 0.00 68 1013.4
20260906010017 74 95 0.0 0.0 0.00 0.00 0.00 65 1013.4
20260906004516 74 94 0.0 1.0 0.00 0.00 0.00 67 1013.6
20260906003014 74 203 0.0 0.0 0.00 0.00 0.00 60 1013.5
20260906001512 75 203 0.0 0.0 0.00 0.00 0.00 55 1013.5
20260906000013 77 203 0.0 0.0 0.00 0.00 0.00 54 1013.5
20260905234510 79 109 2.0 8.0 0.00 0.00 0.00 60 1013.6
20260905233020 78 79 2.0 5.0 0.00 0.00 0.00 59 1013.6
20260905231504 75 119 0.0 0.0 0.00 0.00 0.00 54 1013.7
20260905230004 75 119 0.0 2.0 0.00 0.00 0.00 50 1013.7
20260905224504 75 277 0.0 0.0 0.00 0.00 0.00 51 1013.7
20260905223101 75 282 0.0 0.0 0.00 0.00 0.00 51 1013.8
20260905221601 75 310 0.0 0.0 0.00 0.00 0.00 54 1013.8
20260905220058 74 310 0.0 0.0 0.00 0.00 0.00 54 1013.9
20260905214607 74 310 0.0 0.0 0.00 0.00 0.00 54 1013.9
20260905213102 74 310 0.0 0.0 0.00 0.00 0.00 53 1014.0
20260905211554 75 310 0.0 0.0 0.00 0.00 0.00 53 1014.0
20260905210052 75 310 0.0 0.0 0.00 0.00 0.00 52 1014.2
20260905204550 75 310 0.0 0.0 0.00 0.00 0.00 50 1014.2
20260905203049 76 310 0.0 0.0 0.00 0.00 0.00 51 1014.3
20260905201547 76 310 0.0 0.0 0.00 0.00 0.00 51 1014.2
20260905200047 78 310 0.0 0.0 0.00 0.00 0.00 48 1014.4
20260905194542 79 310 0.0 2.0 0.00 0.00 0.00 47 1014.5
20260905193042 79 58 0.0 3.0 0.00 0.00 0.00 49 1014.5
20260905191540 79 279 0.0 4.0 0.00 0.00 0.00 50 1014.6
20260905190040 79 250 1.0 5.0 0.00 0.00 0.00 50 1014.6
20260905184551 78 147 0.0 0.0 0.00 0.00 0.00 55 1014.5
20260905183041 79 139 0.0 2.0 0.00 0.00 0.00 56 1014.6
20260905181538 79 271 0.0 1.0 0.00 0.00 0.00 56 1014.4
20260905180036 80 174 0.0 3.0 0.00 0.00 0.00 53 1014.3
20260905174542 80 345 0.0 4.0 0.00 0.00 0.00 53 1014.2
20260905173035 80 243 0.0 3.0 0.00 0.00 0.00 52 1014.0
20260905171535 81 52 1.0 6.0 0.00 0.00 0.00 52 1013.9
20260905170032 81 85 0.0 7.0 0.00 0.00 0.00 50 1013.6
20260905164530 81 113 0.0 4.0 0.00 0.00 0.00 51 1013.5
20260905163029 81 255 0.0 3.0 0.00 0.00 0.00 50 1013.5
20260905161528 81 316 0.0 10.0 0.00 0.00 0.00 56 1013.5
20260905160042 82 128 0.0 3.0 0.00 0.00 0.00 53 1013.4
20260905154525 83 320 0.0 3.0 0.00 0.00 0.00 48 1013.4
20260905153025 83 108 2.0 10.0 0.00 0.00 0.00 45 1013.2
20260905151524 83 108 1.0 13.0 0.00 0.00 0.00 44 1013.2
20260905150027 83 25 3.0 12.0 0.00 0.00 0.00 44 1013.1
20260905144539 83 49 3.0 14.0 0.00 0.00 0.00 46 1013.2
20260905143023 84 98 2.0 9.0 0.00 0.00 0.00 45 1013.0
20260905141533 84 136 2.0 10.0 0.00 0.00 0.00 46 1012.8
20260905140018 84 3 1.0 15.0 0.00 0.00 0.00 49 1012.8
20260905134519 85 332 2.0 8.0 0.00 0.00 0.00 49 1012.6
20260905133019 86 107 1.0 8.0 0.00 0.00 0.00 48 1012.5
20260905131516 86 16 3.0 12.0 0.00 0.00 0.00 48 1012.7
20260905130016 87 260 1.0 5.0 0.00 0.00 0.00 51 1012.1
20260905124516 87 37 2.0 8.0 0.00 0.00 0.00 48 1012.1
20260905123015 87 349 1.0 13.0 0.00 0.00 0.00 48 1011.9
20260905121514 87 325 1.0 11.0 0.00 0.00 0.00 48 1012.0
20260905120014 88 128 1.0 7.0 0.00 0.00 0.00 49 1012.3
20260905114513 88 239 0.0 8.0 0.00 0.00 0.00 49 1012.3
20260905113015 86 247 2.0 15.0 0.00 0.00 0.00 52 1012.4
20260905111512 86 113 4.0 14.0 0.00 0.00 0.00 51 1012.6
20260905110015 87 77 4.0 12.0 0.00 0.00 0.00 49 1012.5
20260905104510 87 266 2.0 13.0 0.00 0.00 0.00 50 1012.4